Wind_Speed
42 42 43 43 44 45 45 46 46 45 45 45 47 48 49 49 50 51 52 54 55 56 57 58 59 60 61 62 63 64 65 66 67 68 69 70 71 72
43 43 43 44 45 46 47 47 47 47 47 47 48 49 50 51 53 54 55 56 58 59 60 61 63 64 65 66 67 69 70 71 72 74 74 75 76 77
43 43 44 46 47 48 48 48 48 49 49 49 50 52 53 54 55 57 58 59 60 62 64 65 66 68 69 71 73 74 76 77 78 79 79 80 80 81
43 44 46 47 47 48 49 49 50 50 51 51 53 54 55 57 58 59 60 62 64 66 67 69 70 72 74 76 77 79 80 80 80 81 81 82 83 83
44 45 46 47 48 49 50 50 51 53 54 55 55 57 58 59 60 62 64 66 67 69 70 72 73 75 76 78 78 78 79 79 79 79 79 80 81 81
45 46 47 49 50 50 51 52 54 55 56 57 58 59 61 63 65 66 67 69 70 71 73 74 76 77 77 77 76 76 75 74 74 74 74 73 73 73
46 47 49 50 51 52 53 54 56 57 59 60 61 63 65 67 69 70 71 71 71 73 75 76 77 76 75 74 72 71 70 69 68 67 65 64 63 62
47 49 50 52 52 54 55 56 58 60 61 63 65 67 69 71 72 72 73 73 73 74 75 74 73 71 70 68 67 67 65 64 61 59 57 55 54 52
49 50 52 53 54 55 57 59 61 63 66 68 69 71 73 73 74 74 75 75 75 74 73 70 68 66 64 64 63 62 59 56 53 51 49 46 44 42
50 52 53 54 56 58 59 61 63 66 68 71 72 73 74 74 75 75 75 74 72 70 69 65 62 61 60 59 57 55 51 48 46 44 40 38 36 34
51 53 54 56 59 61 63 64 66 68 70 72 73 74 74 75 75 75 73 72 68 66 64 61 58 55 53 51 49 48 45 42 39 36 33 32 31 29
52 54 57 59 61 63 65 67 69 70 71 72 73 74 74 74 73 72 71 68 65 61 58 55 52 50 45 43 44 42 39 36 33 31 29 28 26 25
54 56 59 61 63 66 68 70 71 72 73 73 73 73 71 70 69 68 65 63 59 55 53 49 46 45 42 38 37 36 33 30 28 26 25 24 23 21
56 59 61 64 66 68 70 71 73 73 73 73 71 69 67 65 64 62 59 57 54 50 47 45 42 40 37 34 31 30 28 26 24 22 21 20 19 17
59 61 63 66 68 70 71 72 73 73 73 71 67 64 63 61 59 57 54 51 48 45 42 40 38 35 32 29 27 26 24 22 21 20 18 17 15 14
61 63 65 68 70 71 71 72 73 72 69 66 63 61 59 57 54 52 49 46 43 40 38 36 33 30 28 26 23 22 20 19 18 17 15 14 13 12
63 65 67 69 69 70 71 71 70 67 64 62 60 58 55 53 50 48 44 41 38 36 34 32 29 27 25 22 20 19 17 16 15 14 12 11 11 10
65 67 68 69 69 70 69 67 64 61 60 58 56 53 50 48 46 43 39 36 34 32 30 28 26 24 21 19 18 16 14 13 12 11 10 9 8 8
67 68 69 69 68 67 64 61 58 57 55 53 51 48 46 43 40 37 34 32 30 28 26 24 22 20 18 17 15 13 12 10 9 9 8 7 7 6
67 67 67 66 64 61 58 56 54 52 51 48 46 44 42 39 35 33 31 28 26 23 22 20 18 16 15 14 13 11 10 9 8 8 7 6 6 5
66 65 63 61 58 55 54 53 50 48 46 44 42 40 37 34 32 29 27 24 21 20 18 17 15 14 13 12 11 9 8 7 7 6 6 5 5 4
63 61 58 56 54 52 51 49 46 44 42 41 39 36 33 31 28 25 23 20 18 17 15 14 13 12 11 10 9 8 7 6 5 5 5 4 4 4
59 57 54 52 51 49 47 44 42 41 39 37 35 32 30 27 24 21 19 17 15 14 13 12 11 10 9 8 7 6 6 5 4 4 4 3 3 3
Wind_Direction
291 293 294 295 295 296 297 297 296 296 296 296 296 296 296 295 294 294 293 293 293 292 291 290 290 288 287 286 285 284 282 281 280 279 277 276 275 273
292 294 295 296 297 297 297 297 297 297 296 296 297 297 296 296 295 295 294 294 293 293 292 291 290 289 288 287 286 285 283 282 281 280 278 277 275 274
293 294 295 296 297 297 298 298 298 297 297 297 298 298 297 297 296 296 296 295 295 294 293 292 291 290 289 288 287 286 285 284 282 281 279 277 275 274
293 294 296 297 297 297 298 298 298 298 298 298 299 298 298 298 297 297 297 296 296 295 294 293 292 291 291 290 289 288 287 285 283 282 280 279 277 275
293 295 296 296 297 297 298 298 299 299 299 299 299 299 299 298 298 298 298 297 297 296 295 294 293 293 292 291 290 289 288 286 285 284 282 281 279 277
293 294 295 297 297 298 299 299 300 300 300 300 300 300 299 299 299 299 299 298 297 296 296 295 295 294 293 292 291 290 289 288 287 286 285 283 281 279
294 295 296 297 298 298 299 300 300 300 300 300 300 300 300 300 299 299 299 298 297 297 296 296 296 295 294 293 292 292 291 290 289 288 286 285 283 281
295 296 297 298 298 299 300 301 301 301 300 300 301 301 301 300 300 300 299 299 298 297 297 297 296 295 294 294 293 293 292 291 290 289 288 286 284 282
295 296 298 299 299 300 301 301 301 301 301 302 302 302 301 301 300 300 300 300 300 299 298 297 296 296 295 295 295 294 293 292 291 290 289 287 285 282
296 298 298 299 299 300 301 301 302 302 302 302 302 302 302 302 301 301 301 300 301 300 299 299 297 297 297 297 296 295 294 293 292 291 289 287 284 282
297 298 299 299 300 301 302 302 302 302 302 303 303 303 303 302 302 302 302 301 301 301 300 299 299 298 298 297 296 295 295 294 293 291 288 286 284 284
298 299 300 301 301 302 302 303 303 303 303 304 304 304 303 303 302 302 302 302 302 301 299 300 300 299 299 297 296 295 295 294 292 290 288 286 285 284
299 300 301 302 302 303 303 304 304 304 304 304 304 304 303 302 302 302 303 303 303 302 301 300 300 300 300 298 295 295 294 294 292 290 288 287 285 283
301 301 302 303 303 304 304 304 304 305 305 305 304 304 303 303 303 303 303 303 302 301 300 300 301 301 300 299 297 295 295 293 292 290 289 288 285 282
302 302 303 304 304 304 304 305 305 305 305 304 304 303 303 304 304 303 304 303 302 301 301 301 301 301 300 299 297 295 293 292 291 291 289 286 283 281
303 304 304 305 305 305 305 306 306 305 305 304 304 304 304 304 304 304 304 302 302 301 301 302 301 300 300 299 296 294 292 291 291 289 286 283 281 279
304 305 305 305 305 306 306 306 306 305 305 305 305 304 304 304 304 304 303 302 301 300 301 301 300 300 299 297 295 293 291 291 288 285 283 280 278 276
305 306 306 306 306 306 306 306 306 305 305 305 305 305 304 304 304 303 302 301 300 300 299 300 299 299 297 295 294 291 289 288 284 282 280 277 275 275
306 307 307 307 307 307 306 306 306 306 306 306 306 305 305 304 303 302 302 301 300 299 298 298 298 296 296 295 292 290 288 284 279 277 276 274 274 273
308 308 308 307 307 307 307 307 307 307 307 307 306 306 305 304 302 301 301 300 299 297 297 297 296 294 293 292 289 286 283 277 274 273 273 272 270 267
309 309 308 308 308 308 308 308 308 308 308 308 307 306 305 303 301 300 299 297 296 296 296 295 294 293 291 288 285 280 278 271 268 268 268 266 262 253
310 309 309 309 309 309 310 310 309 309 308 308 308 306 305 303 301 297 295 293 292 293 294 293 292 291 288 284 278 274 268 262 260 260 259 256 246 230
310 310 309 309 310 311 311 310 310 310 310 309 308 306 305 303 299 294 290 288 288 289 290 288 287 287 283 278 272 264 253 249 247 247 247 240 223 208
Height
5698 5695 5691 5688 5684 5680 5676 5672 5669 5665 5661 5655 5650 5645 5641 5636 5632 5628 5623 5619 5615 5610 5606 5602 5597 5593 5589 5585 5581 5577 5574 5571 5568 5565 5563 5561 5559 5558
5689 5685 5681 5677 5673 5669 5665 5661 5657 5653 5650 5645 5639 5634 5629 5624 5619 5615 5610 5605 5600 5595 5590 5585 5580 5575 5570 5566 5561 5557 5553 5549 5546 5543 5540 5537 5535 5534
5679 5675 5671 5667 5663 5659 5654 5650 5645 5641 5637 5633 5627 5622 5616 5611 5606 5600 5595 5590 5584 5578 5572 5567 5561 5555 5550 5545 5539 5534 5530 5525 5521 5518 5514 5511 5509 5507
5669 5665 5661 5657 5652 5648 5643 5639 5634 5629 5624 5620 5615 5609 5603 5597 5592 5586 5580 5574 5567 5561 5554 5548 5541 5535 5528 5522 5516 5510 5504 5499 5495 5490 5487 5484 5481 5477
5658 5654 5650 5646 5641 5636 5632 5627 5622 5616 5611 5606 5602 5595 5589 5582 5576 5571 5564 5557 5549 5542 5535 5527 5520 5513 5505 5498 5491 5485 5479 5473 5468 5463 5459 5454 5451 5448
5648 5643 5639 5634 5630 5625 5620 5614 5609 5603 5597 5592 5587 5581 5574 5566 5560 5553 5547 5539 5531 5522 5514 5506 5498 5490 5482 5474 5467 5461 5454 5448 5443 5437 5432 5428 5424 5421
5637 5632 5628 5623 5617 5612 5607 5601 5595 5589 5583 5577 5571 5565 5557 5549 5542 5535 5528 5521 5513 5503 5495 5486 5476 5468 5459 5451 5444 5437 5431 5426 5420 5414 5409 5405 5401 5398
5626 5621 5616 5610 5605 5599 5593 5587 5581 5574 5567 5561 5555 5547 5540 5531 5523 5515 5507 5500 5494 5485 5474 5467 5456 5448 5439 5431 5424 5417 5411 5405 5400 5395 5390 5386 5382 5379
5614 5609 5604 5598 5592 5586 5580 5574 5566 5557 5550 5543 5536 5528 5520 5512 5503 5496 5487 5478 5471 5461 5452 5447 5437 5429 5420 5412 5404 5398 5393 5387 5382 5378 5374 5370 5367 5364
5602 5597 5591 5585 5578 5572 5566 5559 5551 5542 5533 5525 5517 5509 5500 5491 5482 5474 5466 5458 5451 5440 5430 5425 5419 5412 5404 5395 5387 5381 5377 5372 5368 5364 5360 5357 5355 5353
5590 5584 5578 5571 5564 5557 5551 5544 5537 5527 5517 5507 5499 5489 5479 5470 5460 5452 5445 5437 5431 5424 5413 5406 5402 5396 5390 5381 5373 5367 5363 5359 5356 5353 5350 5347 5345 5343
5577 5571 5564 5557 5549 5541 5534 5526 5518 5510 5501 5491 5481 5471 5461 5451 5441 5432 5425 5418 5411 5406 5398 5391 5385 5380 5377 5371 5362 5356 5352 5349 5346 5343 5341 5338 5337 5335
5564 5557 5550 5542 5534 5525 5516 5508 5499 5491 5482 5473 5464 5454 5443 5433 5424 5416 5407 5400 5394 5388 5382 5377 5372 5366 5362 5359 5353 5347 5343 5340 5337 5335 5333 5331 5330 5328
5550 5543 5535 5526 5518 5509 5499 5490 5480 5471 5463 5454 5445 5435 5426 5417 5409 5401 5393 5385 5379 5374 5368 5364 5360 5355 5351 5347 5343 5339 5335 5333 5331 5329 5327 5325 5324 5323
5535 5527 5519 5511 5501 5492 5482 5472 5462 5453 5443 5435 5426 5418 5410 5402 5394 5386 5379 5372 5367 5361 5356 5352 5349 5345 5341 5338 5335 5332 5329 5327 5325 5323 5322 5321 5320 5319
5520 5512 5503 5494 5484 5474 5464 5454 5444 5434 5425 5417 5409 5402 5394 5387 5380 5373 5367 5361 5356 5351 5346 5343 5339 5337 5333 5330 5328 5325 5323 5322 5320 5319 5318 5317 5316 5316
5504 5496 5487 5477 5467 5458 5447 5437 5427 5417 5408 5400 5393 5386 5379 5373 5366 5360 5355 5350 5346 5342 5338 5334 5331 5329 5326 5324 5322 5320 5319 5317 5316 5315 5314 5314 5313 5313
5488 5479 5470 5460 5450 5441 5431 5421 5411 5402 5393 5386 5378 5372 5365 5360 5354 5349 5344 5340 5337 5334 5330 5327 5325 5323 5321 5319 5317 5316 5314 5313 5313 5312 5312 5311 5311 5311
5471 5461 5452 5442 5433 5423 5414 5405 5396 5388 5380 5372 5365 5359 5353 5348 5343 5339 5335 5332 5329 5326 5323 5321 5319 5317 5315 5314 5313 5312 5311 5310 5310 5310 5310 5309 5309 5309
5453 5444 5434 5425 5416 5407 5398 5390 5382 5374 5367 5360 5353 5348 5342 5338 5334 5330 5327 5324 5322 5319 5317 5316 5314 5312 5311 5310 5309 5309 5308 5308 5308 5308 5308 5308 5308 5308
5436 5427 5418 5409 5400 5392 5384 5377 5369 5362 5355 5349 5343 5337 5332 5329 5325 5323 5320 5318 5316 5314 5312 5311 5310 5309 5308 5307 5306 5306 5306 5306 5306 5306 5306 5307 5307 5307
5420 5411 5403 5394 5387 5379 5372 5364 5357 5351 5344 5339 5333 5328 5324 5320 5318 5315 5313 5312 5310 5309 5308 5307 5306 5305 5305 5304 5304 5304 5304 5305 5305 5305 5305 5306 5306 5306
5405 5397 5389 5381 5374 5367 5360 5353 5347 5341 5335 5329 5324 5320 5316 5313 5311 5309 5308 5307 5306 5305 5304 5303 5303 5302 5302 5302 5302 5302 5303 5303 5304 5304 5305 5305 5305 5306